Weather in Baltimore

United States     39°17′24″N   76°36′45″W
temp.,
°C
wind,
m/s
gust,
m/s
humid.,
%
clouds,
%
prec.,
mm/h
press.,
hPa
HPBL,
m
12 may, wed
wed1223:00+13nnw61244100 0.0 1021828
02:00+9nnw51045100 0.0 1024819
05:00+8nw41050100 0.0 1024694
08:00+8nnw5856100 0.0 1026745
11:00+12n575277 0.0 10251230
14:00+16nne464518 0.0 10241511
17:00+16nnw244471 0.0 10231134
20:00+15wnw22515 0.0 102331
13 may, thu
thu1323:00+13nnw5105789 0.0 1024345
02:00+11n511604 0.0 1025410
05:00+9n49630 0.0 1025235
08:00+11nnw47510 0.0 1027321
11:00+16nnw35403 0.0 10261495
14:00+18n453662 0.0 10251886
17:00+18n563746 0.0 10241702
20:00+16nnw245012 0.0 102492
14 may, fri
fri1423:00+14nw35543 0.0 102589
02:00+12nnw36665 0.0 1025140
05:00+11n34667 0.0 1025103
08:00+13nnw23565 0.0 1026228
11:00+18nne124225 0.0 10261697
14:00+18e224167 0.0 10251524
17:00+18ssw224083 0.0 10241110
20:00+16w11515 0.0 102419
15 may, sat
sat1523:00+14wsw12599 0.0 102523
02:00+13nw22637 0.0 102545
05:00+12wnw23622 0.0 102555
08:00+14nne12574 0.0 1026168
11:00+19ese11445 0.0 1026835
14:00+19se43428 0.0 10251574
17:00+19sse4339100 0.0 1024934
20:00+18ssw124313 0.0 102437
16 may, sun
sun1623:00+15ssw22530 0.0 102528
02:00+14wsw23614 0.0 102551
05:00+12n11695 0.0 102620
08:00+15ssw11623 0.0 1027178
11:00+18se235139 0.0 1027772
14:00+17se5665100 0.2 1025377
17:00+19sse345390 0.6 1024650
20:00+17ssw2465100 0.6 1025118